EW6034 Weather Reports


time (UTC)temp
F
wind
direction
speed
knots
gust
knots
rain 1hr
in
rain 24hr
in
rain mn
in
humidity
%
barometer
mb
20260506032202 0 0 0.0 0.0 0.00 0.00 0.00
20260506013751 0 248 1.7 1.7 0.00 0.00 0.00
20260506011855 80 143 2.6 3.5 0.00 0.00 0.00 82 1005.0
20260506005233 0 167 1.7 1.7 0.00 0.00 0.00
20260506002924 80 186 3.5 4.3 0.00 0.00 0.00 80 1004.7
20260505224004 0 264 0.9 0.9 0.00 0.00 0.00
20260505203502 0 168 1.7 0.0 0.00 0.00 0.00
20260505202757 83 256 1.7 4.3 0.00 0.00 0.00 76 1006.0
20260505202155 0 264 1.7 1.7 0.00 0.00 0.00
20260505192142 0 168 2.6 2.6 0.00 0.00 0.00
20260505172511 0 0.0 0.0 0.00 0.00 0.00
20260505153139 0 242 0.0 0.0 0.00 0.00 0.00
20260505110740 0 240 0.0 0.0 0.00 0.00 0.00
20260505092638 0 207 0.9 0.9 0.00 0.00 0.00
20260505075715 0 209 0.0 1.7 0.00 0.00 0.00
20260505075214 0 0 0.0 0.0 0.00 0.00 0.00
20260505065757 0 155 2.6 2.6 0.00 0.00 0.00
20260505064838 0 232 0.0 0.0 0.00 0.00 0.00
20260505052448 71 233 0.9 1.7 0.00 0.00 0.00 84 1008.4
20260505051239 0 185 0.9 0.9 0.00 0.00 0.00
20260505050409 72 185 0.9 1.7 0.00 0.00 0.00 82 1008.5